Regional Weather Roundup
Issued by NWS Jackson, KY

Home | Current Version | Previous Version | Text Only | Print | Product List | Glossary Off
Versions: 1 2 3 4 5 6 7 8 9 10 11 12 13 14 15 16 17 18 19 20 21 22 23 24 25 26 27 28 29 30 31 32 33 34 35 36 37 38 39 40 41 42 43 44 45 46 47 48 49 50

000
ASUS43 KJKL 292110
RWRJKL

EAST KENTUCKY HOURLY WEATHER ROUNDUP
NATIONAL WEATHER SERVICE JACKSON KY
500 PM EDT FRI MAY 29 2015

NOTE: "FAIR" INDICATES FEW OR NO CLOUDS BELOW 12,000 FEET WITH
NO SIGNIFICANT WEATHER AND/OR OBSTRUCTIONS TO VISIBILITY.

* THESE REPORTS ARE NOT UNDER NWS QUALITY CONTROL AND MAY NOT
  REPORT WEATHER SUCH AS PRECIPITATION AND FOG.

KYZ079-080-083-085-087-088-110-112-115-119-120-292200
...EASTERN KENTUCKY...

CITY           SKY/WX    TMP DP  RH WIND       PRES   REMARKS
JACKSON        TSTM      71  67  87 W3        30.16S FOG
LONDON         MOSUNNY   82  64  54 W8        30.14F
SOMERSET*      MOSUNNY   73  64  73 W3        30.15S
MONTICELLO*    MOSUNNY   82  70  67 W6        30.16F
MIDDLESBORO*   MOSUNNY   79  67  66 NE5       30.17F
HARLAN APT*    MOCLDY    77  61  57 NW8       30.17S
BLACK MTN*       N/A     72  64  78 E2          N/A
PIKEVILLE APT* PTSUNNY   82  63  51 SE6       30.15F
BIG SANDY*     PTCLDY    86  64  47 S7        30.14F
MOREHEAD APT*  LGT RAIN  68  66  94 CALM      30.17F
$$

KYZ035-036-041-042-044-050-067-078-099-292200
...CENTRAL KENTUCKY...

CITY           SKY/WX    TMP DP  RH WIND       PRES   REMARKS
MT STERLING*   PTSUNNY   70  68  94 CALM      30.15F
FLEMING/MASON* HVY RAIN  70  68  94 S8G16     30.15S
DANVILLE*      MOSUNNY   79  66  65 SW13      30.13F
RICHMOND*      MOSUNNY   79  66  65 S5        30.13F
LEXINGTON      MOSUNNY   80  67  64 S13       30.11F
FRANKFORT      MOSUNNY   83  64  52 S10G18    30.08F
$$

KYZ091>093-OHZ055-061-077-WVZ005-015-034-035-042-292200
...SOUTHERN OHIO/WEST VIRGINIA...

CITY           SKY/WX    TMP DP  RH WIND       PRES   REMARKS
COVINGTON      PTSUNNY   83  67  58 S10       30.08
COLUMBUS       PTSUNNY   83  65  54 SW9       30.09F
DAYTON         PTSUNNY   84  65  52 SW12G21   30.08F
WILMINGTON     SUNNY     84  61  45 S15       30.09F
HUNTINGTON     CLOUDY    84  65  52 W5        30.12F
CHARLESTON     PTSUNNY   84  60  44 SE13G21   30.13F THUNDER
PINEVILLE*     RAIN      69  67  96 MISG      30.27S
BECKLEY        TSTM      64  60  87 SE9       30.26R FOG
BLUEFIELD      LGT RAIN  69  63  81 SE3       30.27F
$$

VAZ002-007-008-TNZ017-027-036-066-071-292200
...SOUTHWEST VIRGINIA/EAST TENNESSEE...

CITY           SKY/WX    TMP DP  RH WIND       PRES   REMARKS
WISE*          PTSUNNY   73  61  64 S10       30.26S
JONESVILLE*    LGT RAIN  68  68 100 SW8       30.20S
ABINGDON*      PTSUNNY   82  59  46 SW8       30.21F
BRISTOL        PTSUNNY   82  61  48 CALM      30.18F
KNOXVILLE      PTSUNNY   72  65  78 E7        30.15S
OAK RIDGE      SUNNY     86  61  42 VRB7      30.15F
CROSSVILLE     PTSUNNY   70  63  78 W10G22    30.20S HAZE
NASHVILLE      MOSUNNY   84  66  54 S8        30.09F
$$

...KEY TO REMARKS...
VSB - VISIBILITY IN MILES
WCI - WIND CHILL INDEX
HX  - HEAT INDEX

$$



USA.gov is the U.S. government's official web portal to all federal, state and local government web resources and services.